Flag for Afghanistan Weather past 2 weeks in Mazari Sharif, Afghanistan

Now
88 °F

Clear.


Feels Like: 87 °F
Forecast: 83 / 104 °F
Wind: 1 mph from Southeast

Location: Termez Airport

Current Time: Jul 23, 2014 at 4:39:50 AM

Latest Report: Jul 22, 2014 at 9:30 PM


Visibility: 10 mi

Pressure: 29.47 "Hg

Humidity: 38%

Dew point: 59 °F

Location of Mazari SharifLocation

Historic Weather in Mazari Sharif — Graph

°F

Mazari Sharif temperature yesterday

Maximum temperature yesterday: 109 °F (at 2:00 PM)
Minimum temperature yesterday: 72 °F (at 3:30 AM)
Average temperature yesterday: 92 °F

Past Weeks' High & Low Weather Summary

 TemperatureHumidityPressure
High109 °F (Jul 22, 2:00 PM)69% (Jul 22, 4:30 AM)29.77 "Hg (Jul 22, 4:30 AM)
Low63 °F (Jul 18, 5:00 AM)7% (Jul 22, 2:00 PM)29.45 "Hg (Jul 22, 6:00 PM)
Average86 °F28%29.63 "Hg
* Reported Jul 7 8:30 PM — Jul 22 9:00 PM, Mazari Sharif, Weather by CustomWeather, © 2014

Note: Actual official high and low records may vary slightly from our data, if they occured in-between our weather recording intervals... More about our weather records

Advertising

Mazari Sharif weather history for previous 24 hours

 ConditionsComfort  
Time TempWeatherWind HumidityBarometerVisibility
9:00 PM
Jul 22
90 °FClear.1 mph31%29.47 "Hg10 mi
8:30 PM91 °FClear.No wind30%29.47 "Hg10 mi
8:00 PM93 °FClear.1 mph26%29.47 "Hg10 mi
7:30 PM91 °FClear.6 mph30%29.47 "Hg10 mi
7:00 PM100 °FSunny.No wind20%29.45 "Hg10 mi
6:30 PM100 °FSunny.1 mph27%29.45 "Hg10 mi
6:00 PM104 °FSunny.1 mph16%29.45 "Hg10 mi
5:30 PM104 °FSunny.3 mph24%29.47 "Hg10 mi
5:00 PM106 °FPassing clouds.3 mph17%29.47 "HgN/A
4:30 PM108 °FSunny.3 mph13%29.47 "Hg10 mi
4:00 PM109 °FPassing clouds.3 mph10%29.47 "HgN/A
3:30 PM109 °FSunny.3 mph8%29.47 "Hg10 mi
3:00 PM109 °FPassing clouds.3 mph8%29.47 "HgN/A
2:30 PM109 °FPassing clouds.3 mph9%29.50 "HgN/A
2:00 PM109 °FSunny.1 mph7%29.50 "Hg10 mi
1:30 PM108 °FSunny.1 mph10%29.53 "Hg10 mi
1:00 PM108 °FPassing clouds.3 mph12%29.53 "HgN/A
12:30 PM108 °FPassing clouds.3 mph11%29.53 "HgN/A
12:00 PM106 °FPassing clouds.3 mph12%29.56 "HgN/A
11:30 AM106 °FPassing clouds.3 mph13%29.56 "HgN/A
11:00 AM104 °FPassing clouds.3 mph13%29.56 "HgN/A
10:30 AM104 °FSunny.1 mph13%29.59 "Hg10 mi
10:00 AM102 °FSunny.1 mph13%29.59 "Hg10 mi
9:30 AM100 °FSunny.1 mph14%29.59 "Hg10 mi
9:00 AM97 °FPassing clouds.3 mph18%29.59 "HgN/A
8:30 AM93 °FSunny.3 mph28%29.59 "Hg10 mi
8:00 AM88 °FSunny.3 mph33%29.59 "Hg10 mi
7:30 AM86 °FSunny.3 mph35%29.59 "Hg10 mi
7:00 AM81 °FSunny.3 mph39%29.59 "Hg10 mi
6:30 AM77 °FSunny.3 mph44%29.59 "Hg10 mi
6:00 AM75 °FSunny.6 mph50%29.59 "Hg10 mi
5:30 AM73 °FSunny.6 mph57%29.59 "Hg10 mi
5:00 AM73 °FSunny.6 mph57%29.59 "Hg10 mi
4:30 AM72 °FClear.6 mph69%29.59 "Hg10 mi
4:00 AM72 °FClear.3 mph65%29.56 "Hg10 mi
Weather by CustomWeather, © 2014

See weather overviewHow to use our weather pages